Theta_e
312 310 314 319 319 319 318 317 322 323 324 322 322 325 327 327 329 328 324 333 333 337 337 339 338 340 338 336 336 334 333 331 329 327 323 319 317 316 316 320 325 329 331 332 334 335 337 337 338
310 313 317 318 317 317 316 316 319 322 323 322 324 324 325 326 325 326 330 330 335 337 336 337 337 336 335 334 333 329 326 323 319 315 312 310 309 308 309 311 312 314 318 324 327 329 333 334 334
314 313 315 317 315 315 316 319 320 320 321 323 324 323 324 325 324 324 327 331 336 336 336 335 335 334 334 331 327 323 318 315 312 309 306 304 305 306 308 310 313 312 313 319 320 323 326 329 330
314 315 315 317 316 316 318 319 317 323 323 322 324 325 323 322 323 321 328 332 335 335 334 334 333 331 329 326 322 316 313 309 306 304 303 303 305 307 311 312 315 316 317 318 318 319 320 322 325
311 313 312 315 315 316 316 315 315 320 323 324 324 323 323 321 319 321 330 333 335 333 334 332 330 328 326 321 316 311 307 304 303 303 304 305 308 310 313 314 315 316 316 317 317 317 318 318 320
314 313 312 312 313 313 314 314 315 318 321 320 323 323 323 318 321 324 330 333 333 332 330 328 326 324 320 315 311 307 305 304 304 305 305 307 307 306 309 311 312 313 314 315 316 316 317 317 317
314 317 312 313 315 315 316 313 317 319 319 320 321 322 321 319 319 324 328 331 330 328 326 325 324 320 315 311 308 306 305 305 305 305 304 304 303 305 308 309 309 311 312 312 313 314 314 314 315
315 315 315 315 315 315 316 316 315 316 318 315 318 321 321 319 319 324 326 327 326 324 322 322 320 317 314 311 306 305 305 305 305 305 304 304 306 308 310 309 310 311 311 311 311 311 312 312 313
314 315 314 316 317 317 316 317 314 314 317 315 316 316 316 316 319 322 323 323 322 320 319 319 316 313 311 308 307 306 305 305 305 305 305 307 310 311 311 310 308 308 309 308 310 311 309 309 310
317 315 315 315 317 317 315 315 315 315 316 317 317 316 315 315 319 322 323 323 321 320 318 316 313 311 309 307 307 306 306 305 305 305 307 310 310 310 309 309 308 308 308 308 308 307 307 308 311
316 317 314 315 315 314 315 315 314 316 318 317 318 317 316 316 318 321 322 322 321 320 318 314 312 311 309 307 307 306 306 306 307 307 309 310 310 310 310 310 310 311 310 310 310 310 311 311 313
315 315 313 314 313 314 315 314 314 314 316 315 315 314 315 317 318 318 319 319 319 318 317 314 312 310 309 307 307 307 306 307 309 310 310 310 310 310 309 309 310 310 310 310 310 312 315 316 315
315 314 313 314 312 312 312 315 315 315 315 315 314 312 314 315 316 317 317 318 317 316 316 314 312 310 308 307 307 306 307 308 308 310 310 310 310 309 308 309 310 310 309 310 313 316 314 315 316
315 315 314 314 314 313 314 316 314 316 314 315 314 315 315 314 314 315 316 316 316 315 315 314 311 310 308 307 307 307 307 308 310 310 310 310 310 310 310 309 310 309 309 310 313 317 316 317 318
314 316 316 316 315 316 314 318 317 317 314 315 316 316 315 315 313 314 315 316 316 315 314 313 310 309 308 307 306 307 308 309 310 310 309 310 310 310 310 309 309 309 310 312 316 317 315 315 316
316 316 317 316 314 314 314 322 319 315 316 318 319 319 318 318 315 314 313 314 315 315 313 312 309 309 307 306 307 307 308 310 310 309 309 310 310 310 309 309 309 309 310 314 315 315 313 315 316
316 319 317 318 315 316 314 321 318 315 317 319 320 320 318 317 316 314 312 311 313 313 313 311 309 308 307 306 306 307 308 309 309 310 310 309 308 307 309 308 309 311 315 315 314 314 315 314 315
320 318 318 320 317 316 319 319 320 319 317 318 319 318 316 314 313 309 309 309 311 312 311 310 308 307 307 306 307 308 309 310 310 310 309 308 307 307 308 308 311 313 314 314 314 314 314 316 315
314 317 319 318 314 317 318 318 318 319 318 317 315 315 314 313 310 308 307 308 309 310 309 308 307 307 307 308 309 310 311 311 310 308 307 307 307 306 307 310 313 314 314 314 314 314 315 315 317
315 316 317 316 314 316 318 319 319 316 314 313 313 313 312 313 312 308 307 307 308 308 308 307 307 307 308 308 308 310 311 310 309 307 307 306 307 306 308 311 314 314 313 313 314 314 315 317 316
315 315 316 315 315 314 316 325 321 314 313 312 310 311 310 311 310 308 306 306 307 307 307 307 307 307 307 306 308 309 310 310 310 309 307 307 307 307 309 312 314 314 313 313 314 314 316 317 315
314 313 313 314 318 326 316 340 326 316 315 311 308 309 310 309 308 307 306 306 306 306 307 307 307 307 306 307 309 310 312 311 310 309 308 308 307 308 311 313 314 315 313 313 314 314 315 316 316
314 312 314 316 319 319 319 328 327 314 316 309 307 307 307 308 306 305 304 304 305 306 307 307 307 306 306 308 309 310 311 310 309 308 308 308 308 308 311 313 312 314 314 313 314 315 315 314 313
311 314 313 314 317 326 318 321 329 313 307 307 306 305 304 305 306 304 303 304 305 306 307 307 307 306 306 308 308 309 310 309 309 310 309 310 310 310 310 312 314 315 315 315 314 314 314 314 312
312 316 324 325 326 326 311 316 319 306 305 304 303 303 302 302 303 304 304 305 306 306 306 306 306 306 306 307 307 308 309 309 308 310 310 311 311 312 313 313 312 313 314 314 315 315 315 315 313
314 317 323 326 320 317 312 317 314 304 302 301 301 300 300 299 300 301 302 303 304 304 305 306 306 306 305 306 307 307 308 309 310 310 310 311 312 313 314 313 313 312 314 314 314 315 315 314 314
315 317 311 312 307 314 314 312 305 305 303 301 300 299 298 297 298 297 297 297 299 300 302 303 304 305 305 305 306 306 307 307 309 309 310 311 311 312 313 314 313 313 313 314 314 314 315 313 314
312 311 315 315 318 315 309 310 312 307 304 300 299 298 296 296 295 295 294 294 294 294 295 297 298 301 302 303 304 305 306 306 307 308 309 310 311 312 312 314 314 312 312 312 314 315 314 313 313
311 313 311 313 311 310 310 310 305 304 301 300 298 296 295 295 294 293 293 292 291 292 292 293 294 295 296 298 302 304 305 305 306 307 308 309 311 311 312 313 315 314 313 313 314 314 314 313 312
308 312 311 312 312 310 311 311 301 300 298 297 296 295 294 293 293 292 292 291 291 290 290 290 291 292 293 295 297 301 303 304 305 306 307 308 309 311 312 313 313 315 314 314 314 314 313 314 313
Wind_Speed
3 3 2 2 4 3 4 3 1 5 4 2 4 2 1 4 2 3 1 8 9 17 17 17 16 16 13 12 11 7 5 4 4 4 4 5 7 9 9 11 12 13 11 10 12 11 12 13 12
3 3 1 1 3 4 3 2 7 4 2 4 3 3 4 1 0 2 6 7 15 17 17 16 17 15 13 12 9 7 5 5 4 4 6 7 9 10 10 11 12 13 14 14 13 13 13 14 14
4 3 3 2 3 4 1 3 1 1 4 5 4 3 0 1 2 1 3 12 18 16 16 18 17 15 13 11 9 6 5 5 5 5 6 7 8 9 10 11 12 13 14 13 14 13 13 14 14
3 3 2 4 7 5 2 3 1 2 3 3 2 3 3 1 2 2 8 13 18 16 16 17 16 12 10 9 8 7 6 5 5 5 7 8 9 9 10 11 11 12 12 13 14 14 14 14 13
2 1 3 4 6 3 5 5 3 1 1 3 2 1 0 2 1 4 12 15 18 16 14 13 14 11 10 8 7 6 5 5 5 5 7 8 8 9 9 10 11 11 12 13 14 14 13 13 14
3 1 4 9 5 3 5 5 3 3 2 1 3 2 1 3 4 7 13 15 15 15 13 12 12 11 9 8 7 5 5 5 5 5 7 7 9 11 11 11 11 11 12 12 13 13 13 13 14
3 2 3 3 1 3 3 2 3 4 4 4 3 2 3 3 5 10 13 14 14 13 13 12 11 11 10 8 7 5 3 3 4 6 8 10 12 13 13 11 10 10 11 12 13 13 14 14 14
2 3 4 4 3 4 1 3 1 4 2 1 2 1 2 4 8 10 12 12 12 12 11 11 11 10 8 6 6 4 3 5 6 8 10 12 12 12 10 9 10 11 12 13 13 15 15 15 16
1 4 6 5 6 1 2 3 2 0 3 2 3 2 3 7 10 12 12 12 13 13 13 12 11 11 10 8 7 5 4 5 7 10 11 11 8 7 8 10 12 13 14 16 15 14 15 18 16
4 5 7 3 4 2 1 1 1 2 3 5 6 6 4 7 12 13 15 16 17 16 15 13 13 11 10 8 7 5 5 6 8 10 10 7 7 8 10 11 13 14 15 15 14 15 16 13 11
2 3 4 2 4 3 3 3 1 3 7 10 8 3 8 10 12 14 16 16 17 16 16 16 14 13 12 9 7 5 5 7 8 9 8 6 7 8 9 10 10 10 12 11 13 12 12 13 13
5 7 2 1 3 3 3 2 4 7 11 5 6 3 5 10 12 16 17 17 15 17 17 17 15 14 13 9 7 5 4 6 6 6 6 5 7 8 10 10 9 9 10 11 11 13 15 13 11
6 3 4 5 5 5 2 10 7 12 15 12 10 8 11 12 13 13 15 13 15 17 17 17 18 16 14 12 8 6 4 5 6 5 4 4 6 7 9 9 8 8 9 9 12 12 10 9 7
2 7 5 4 5 3 4 7 1 2 2 1 3 8 8 10 11 12 15 17 17 18 17 17 17 15 14 10 8 5 5 5 4 3 3 4 5 6 8 8 8 8 7 9 11 9 7 7 8
0 4 5 8 2 3 3 8 9 8 6 9 8 8 8 8 8 14 14 16 18 19 16 18 17 16 14 11 8 5 4 5 3 2 4 4 5 6 7 7 7 6 7 9 7 6 4 9 9
2 3 4 3 1 2 1 7 2 2 1 4 8 8 8 9 11 13 13 13 15 16 18 17 18 17 14 9 6 4 4 2 1 2 3 4 4 4 5 5 5 5 7 5 4 3 5 12 14
3 3 6 1 1 2 5 6 1 3 9 14 12 11 10 12 11 12 14 14 14 16 18 18 18 16 14 10 6 4 3 0 1 3 3 3 3 2 2 2 3 5 4 5 4 5 2 9 13
4 4 5 4 2 4 8 15 16 12 9 13 15 13 10 10 9 10 10 6 11 14 16 17 17 15 12 9 4 2 0 1 2 2 2 2 1 2 1 2 4 2 5 5 5 5 4 10 14
3 1 1 2 1 3 4 12 15 16 10 11 12 11 10 10 8 11 8 3 8 12 16 17 17 15 11 6 3 2 2 0 2 2 2 2 3 4 3 2 3 5 5 5 5 8 5 7 7
3 2 2 1 2 3 7 17 11 7 8 13 15 14 14 13 12 11 9 6 6 11 13 14 14 13 8 4 3 1 2 1 2 2 2 3 3 4 3 2 2 4 7 7 10 6 2 2 5
10 9 4 3 3 1 8 6 3 5 9 13 16 15 15 15 14 11 10 7 9 12 13 13 12 9 5 3 2 2 1 1 1 1 1 1 3 4 2 2 4 4 6 7 11 4 2 2 5
9 8 6 3 2 3 4 4 5 3 7 16 18 17 16 17 15 11 9 8 9 11 12 12 10 8 5 2 1 1 2 1 1 2 1 1 4 4 2 2 4 4 6 7 9 5 1 2 2
1 4 6 3 3 2 1 2 2 4 4 16 18 17 17 16 14 11 10 9 10 10 10 9 8 6 3 1 1 1 2 1 1 1 2 2 4 5 3 2 4 5 5 7 8 6 4 5 1
10 6 5 3 1 3 2 3 0 4 6 9 14 15 17 17 16 13 10 9 11 9 8 7 6 4 2 1 1 1 2 1 1 2 3 2 3 4 4 3 3 4 5 7 8 7 5 3 2
2 7 3 3 3 3 2 3 3 4 6 8 12 13 15 16 16 14 12 11 10 9 7 6 5 5 4 3 2 2 2 3 2 2 2 3 4 4 5 5 5 7 6 6 8 7 7 6 6
8 3 3 5 4 3 2 5 1 7 6 7 9 11 13 16 15 15 17 15 14 13 11 10 9 7 6 6 5 5 4 3 3 3 3 3 3 4 5 6 6 8 8 7 8 7 7 8 8
6 6 2 6 2 1 3 3 6 7 10 11 12 14 15 15 15 15 19 18 17 17 15 14 12 10 8 8 7 7 6 5 4 4 4 5 5 6 6 7 10 10 10 9 9 9 9 10 10
4 7 3 1 5 5 3 3 1 6 7 10 13 14 13 13 14 14 18 19 18 17 16 15 14 13 12 10 8 7 8 8 6 6 6 7 9 8 8 8 8 9 12 13 10 10 10 11 12
4 4 1 1 1 3 4 2 5 4 5 7 10 11 12 13 13 12 17 18 18 18 19 17 17 16 15 14 11 8 9 9 8 8 7 8 9 8 9 10 10 11 12 14 13 11 10 13 12
1 3 6 4 4 1 2 2 3 6 6 6 8 9 10 12 12 14 18 19 21 21 21 20 20 19 18 16 14 10 9 10 10 9 9 9 9 10 10 10 13 14 15 16 16 13 13 12 13
Wind_Direction
241 217 148 229 221 255 222 220 332 196 203 157 129 227 258 337 266 330 121 168 152 159 159 162 170 166 178 196 198 198 191 185 200 234 265 282 286 291 294 291 288 286 288 299 307 296 297 291 283
197 159 116 163 245 224 197 180 209 198 114 153 163 172 219 235 30 91 131 166 156 159 162 167 178 186 189 193 200 194 205 216 237 260 276 289 297 300 304 303 300 296 289 289 303 296 289 291 288
165 153 219 224 233 225 284 196 251 218 195 184 191 245 247 97 124 61 141 155 158 162 164 173 181 182 188 190 194 203 220 238 255 279 295 301 305 302 306 307 307 304 300 309 304 301 292 287 284
187 152 132 238 228 241 242 162 77 190 202 206 258 209 192 28 117 107 148 158 161 164 165 178 180 182 179 191 198 208 223 248 269 285 298 303 309 314 316 316 317 313 311 311 308 304 297 292 286
77 176 188 233 241 267 242 270 257 160 218 195 227 120 147 145 159 143 158 160 166 165 163 170 182 184 188 198 202 212 239 263 284 300 306 311 316 315 323 323 319 318 317 313 308 303 300 295 287
153 218 194 225 222 239 264 223 209 204 233 213 249 251 96 116 166 161 163 163 169 168 165 169 183 188 193 197 215 230 251 266 285 301 315 318 313 319 317 318 325 325 321 314 310 306 301 297 290
224 193 220 223 258 279 236 155 226 176 172 238 323 270 93 167 173 155 161 165 168 172 170 170 174 189 198 209 221 230 245 274 293 316 317 313 312 312 311 314 321 331 323 317 308 305 302 299 289
220 224 178 208 210 259 182 198 223 225 166 40 282 223 128 108 157 149 162 170 173 176 179 178 178 181 184 192 201 215 256 283 304 313 315 314 314 309 310 310 310 316 315 315 309 309 302 301 291
258 224 222 203 198 186 186 213 170 89 238 216 216 252 59 133 151 156 169 179 184 191 187 187 190 192 193 197 218 238 264 290 309 319 319 322 314 312 311 299 305 305 306 306 305 305 303 301 294
238 218 208 216 205 205 224 275 298 226 188 232 242 203 156 164 175 181 195 195 198 200 197 199 198 198 203 205 220 232 270 299 311 321 322 324 319 313 315 310 308 311 310 314 315 311 308 307 295
175 252 208 208 233 247 256 246 241 233 260 239 257 247 186 197 204 206 217 213 209 205 202 204 204 203 208 213 216 232 282 304 317 323 322 320 324 321 321 314 315 317 321 322 320 318 316 305 296
210 231 231 235 209 203 244 316 252 220 252 285 265 248 205 215 214 213 223 216 206 205 208 204 205 209 211 212 216 239 282 304 317 319 320 325 326 323 327 317 316 323 321 319 324 322 312 310 307
229 236 215 247 250 258 281 257 271 263 264 262 254 254 249 247 239 231 235 228 218 215 209 207 206 206 212 213 217 237 276 299 308 318 312 323 320 322 327 327 323 319 321 328 332 332 350 353 1
233 240 255 274 255 247 265 274 353 245 20 279 244 258 249 252 250 243 234 227 218 217 210 205 205 207 211 212 220 237 276 298 314 308 305 316 311 320 323 324 323 319 328 333 336 347 6 34 39
127 291 246 225 253 245 231 258 232 263 291 283 271 270 261 258 247 239 241 232 224 219 207 202 199 203 205 209 217 248 280 306 302 304 317 314 310 309 311 312 315 319 319 334 348 35 68 70 80
215 244 249 85 125 54 32 264 202 111 148 327 299 280 279 281 264 259 254 241 224 211 200 193 198 198 198 202 215 245 282 298 304 318 322 321 311 307 314 305 308 312 332 340 30 49 87 84 74
184 257 229 263 57 65 203 280 213 167 307 306 305 309 308 301 296 286 270 247 223 205 191 185 188 188 192 198 205 240 287 34 344 327 328 325 321 333 332 317 319 343 35 83 74 99 71 104 88
182 211 224 197 134 219 230 263 290 299 307 309 318 321 332 343 358 343 324 267 203 189 182 171 171 173 178 187 201 221 177 31 14 1 345 348 5 80 88 343 331 348 98 100 105 124 103 88 86
126 209 203 120 51 277 267 290 289 299 349 5 1 350 358 11 360 1 13 82 148 160 162 161 158 158 166 166 187 210 198 114 24 21 44 72 93 117 108 359 2 112 126 121 127 140 115 85 96
162 145 270 299 348 310 315 296 297 23 61 50 28 22 11 4 8 16 27 68 114 138 142 148 150 154 160 167 188 188 165 119 86 53 83 104 116 128 114 36 102 125 123 125 149 142 57 77 26
225 229 190 247 306 154 303 282 31 74 99 45 32 24 18 12 1 9 27 56 106 120 132 136 139 143 155 180 161 134 125 81 79 65 98 113 138 141 101 81 144 135 137 152 171 175 87 13 27
230 218 187 220 226 275 337 290 311 18 120 31 16 16 13 9 9 17 29 60 91 108 120 125 131 136 144 155 148 274 299 2 110 125 137 146 153 151 100 78 160 164 172 177 193 216 269 153 103
193 144 141 125 164 298 194 250 228 18 3 5 6 6 9 8 9 14 38 62 80 96 106 109 112 110 114 126 149 316 319 74 124 151 154 179 174 172 156 162 182 184 194 196 204 209 205 187 76
141 100 73 78 156 235 150 240 284 11 337 338 356 7 8 8 12 23 40 75 88 86 83 85 86 84 78 21 6 354 300 279 216 187 166 196 202 203 201 190 227 217 207 206 207 214 213 218 316
248 167 142 184 193 240 33 222 2 77 21 1 356 7 13 15 21 23 35 44 53 56 60 60 57 44 14 354 340 316 318 293 262 247 207 200 220 227 227 211 236 237 230 214 214 212 222 227 227
196 241 216 207 194 154 124 227 132 95 63 38 29 27 28 24 24 30 31 32 31 26 22 20 17 21 7 347 336 315 294 299 282 275 268 257 244 251 241 240 247 238 237 225 212 224 222 229 245
171 217 64 108 62 279 188 130 144 136 52 35 31 34 28 27 26 28 27 29 29 25 18 10 4 2 357 354 342 330 312 302 298 288 276 258 255 262 252 253 247 236 233 230 226 228 237 241 247
248 150 149 261 173 211 198 248 136 191 24 26 28 27 24 27 29 28 27 25 25 25 21 18 14 4 350 350 345 336 316 302 295 287 270 262 261 263 254 251 245 231 231 236 238 241 235 238 244
156 193 111 190 246 189 171 157 10 85 59 44 38 31 26 26 28 29 29 27 26 24 24 17 15 8 1 349 341 339 322 310 300 289 284 271 270 260 258 254 248 238 229 233 234 236 239 239 243
6 218 190 198 188 269 335 149 103 100 80 59 51 39 32 33 33 31 31 29 28 27 21 17 13 11 1 349 341 337 330 322 311 300 292 284 276 268 262 259 251 248 246 243 242 235 238 236 235